Wind_Speed
29 37 42 41 41 42 38 41 50 53 53 50 48 45 44 43 44 41 39 31 31 26 20 27 43 55 42 38 35 34 34 34 33 33 32 29 27 25 22 21 20 19 18 18 17
35 37 47 49 47 47 44 42 49 54 55 53 49 49 47 46 46 44 40 36 36 31 28 25 21 48 49 41 39 37 36 36 35 34 31 31 29 26 23 21 19 18 17 17 17
42 41 51 54 52 50 48 48 48 55 56 57 54 50 50 50 50 48 45 40 33 28 27 19 18 36 49 53 44 39 38 38 37 36 32 31 29 27 25 21 20 18 19 18 17
45 48 57 60 54 50 48 51 51 55 57 59 57 54 53 53 55 53 50 49 41 35 32 23 27 29 30 35 47 43 40 40 39 37 36 33 31 29 26 24 22 20 19 19 19
46 45 63 64 54 53 50 50 55 54 60 59 60 59 57 55 56 54 53 51 45 40 37 35 36 33 29 31 31 47 44 42 43 41 39 36 33 30 28 25 25 23 21 20 20
49 37 58 66 55 54 51 51 52 56 60 59 63 63 61 59 58 57 58 55 52 50 46 36 37 34 37 30 33 32 53 45 46 45 42 40 37 33 30 29 28 26 25 23 23
42 29 42 51 58 51 52 51 51 53 57 60 63 64 63 63 60 61 60 59 57 56 55 44 44 40 41 32 32 32 48 60 52 48 44 43 40 36 34 30 30 30 28 27 25
34 23 23 24 24 44 54 52 52 51 53 57 60 64 63 64 62 61 60 63 62 59 56 54 51 50 45 38 33 34 33 44 58 53 46 45 43 39 38 35 31 31 30 29 29
23 20 19 18 19 37 50 52 52 50 50 52 55 62 64 64 64 64 65 63 63 60 57 55 54 51 49 45 35 27 36 33 49 60 52 50 43 42 40 38 35 33 33 31 30
21 20 18 18 15 23 41 51 52 50 49 48 50 58 60 64 65 67 66 63 62 60 60 56 54 52 48 48 45 36 28 28 31 55 55 52 47 47 44 40 38 37 36 34 34
18 16 18 17 15 16 27 44 49 49 49 47 48 52 55 60 65 68 68 64 64 63 61 58 54 53 49 50 46 37 30 25 28 40 52 55 53 50 49 45 43 41 40 39 39
14 15 16 14 12 13 16 32 46 48 47 47 45 46 50 55 60 65 65 64 61 63 62 62 56 56 50 50 45 41 39 33 32 37 38 48 54 56 54 52 47 44 43 41 41
15 16 14 12 13 13 12 19 37 46 46 47 45 44 45 49 55 60 63 63 62 60 61 61 60 59 56 53 45 45 40 40 41 43 39 35 40 41 51 48 49 50 51 48 48
12 11 12 10 10 10 13 14 25 42 43 45 44 42 42 43 48 53 58 60 60 59 58 60 59 55 53 51 47 45 44 45 45 44 42 39 38 35 32 35 40 45 42 44 45
11 10 9 9 10 11 12 13 17 37 38 44 44 43 41 40 44 47 51 57 57 57 58 56 55 54 54 52 49 46 48 49 46 43 46 41 43 38 37 35 37 40 42 39 39
8 6 5 5 6 9 12 14 14 29 32 35 43 42 41 40 41 43 43 49 53 55 55 54 54 53 52 53 50 48 50 49 47 45 49 46 43 43 39 37 39 40 38 39 39
8 7 6 7 6 6 6 9 13 20 32 30 37 42 42 41 42 41 42 43 44 52 53 51 51 49 50 52 52 51 49 49 49 48 51 47 46 47 41 38 39 40 41 41 41
10 10 9 9 8 5 1 4 7 14 23 30 31 39 42 42 42 43 41 42 40 42 47 48 49 48 49 49 49 48 48 48 48 48 49 48 47 47 45 40 36 40 43 44 43
10 6 4 6 8 10 6 3 3 9 14 26 28 32 40 43 42 42 42 39 39 39 40 42 45 45 46 46 46 46 48 48 47 47 48 50 46 44 40 38 35 34 39 43 44
10 9 6 6 5 11 11 2 5 6 7 21 24 28 35 42 43 44 44 42 39 38 38 37 40 41 41 44 45 44 41 45 46 48 48 49 51 48 41 36 32 30 31 34 38
8 8 4 3 3 7 8 3 5 6 6 11 14 23 26 35 41 44 44 44 42 40 38 38 37 37 36 38 39 41 42 42 42 44 44 46 46 43 42 41 38 33 32 34 35
4 6 5 1 2 1 5 1 5 5 4 7 14 16 20 30 39 43 45 42 42 41 40 39 38 35 36 34 34 37 34 36 40 42 42 43 43 43 43 42 43 41 35 33 31
8 5 3 1 1 4 5 5 1 3 4 7 11 7 12 26 32 42 44 46 43 42 41 39 40 37 36 36 36 36 33 33 34 35 39 43 42 44 44 44 42 42 41 41 39
9 9 3 0 2 4 5 4 3 4 1 6 7 9 7 11 24 35 42 46 44 42 42 41 40 39 38 38 36 35 33 34 34 32 31 35 39 43 44 45 42 40 38 33 34
5 9 5 3 3 3 5 8 4 4 4 10 9 9 10 4 7 28 38 42 42 41 39 40 42 39 39 37 35 34 35 33 36 32 33 33 34 36 38 40 40 38 35 33 31
1 4 7 2 1 3 5 7 10 7 4 11 13 9 10 5 5 9 30 40 43 41 39 38 39 39 37 35 35 34 34 34 35 33 32 36 34 32 31 31 32 31 33 36 39
4 3 4 4 3 3 4 8 12 7 1 11 10 14 11 12 12 9 19 36 41 43 34 34 35 36 38 35 34 38 34 38 39 34 35 35 34 35 36 35 35 35 35 35 35
Wind_Direction
281 262 257 250 247 240 238 236 218 214 212 213 221 223 221 218 215 225 227 218 211 215 213 194 217 205 206 201 201 201 197 200 198 201 190 187 191 194 189 196 196 191 189 187 184
296 263 255 249 244 240 234 236 224 216 214 210 210 219 218 214 212 214 218 216 221 226 217 225 213 212 202 207 202 205 202 203 199 201 197 189 192 196 196 198 197 196 195 195 192
295 266 252 248 242 238 234 228 227 217 217 210 206 210 214 212 211 206 213 210 209 211 214 211 222 212 210 208 206 205 206 206 204 201 201 195 193 198 199 200 200 201 201 199 199
303 266 250 251 242 238 233 226 225 221 218 214 206 205 210 210 208 207 207 216 219 206 214 203 194 196 201 211 216 209 212 210 209 203 201 201 199 199 202 202 203 206 211 207 209
317 269 250 252 245 237 232 226 222 222 221 218 209 203 207 209 210 207 205 209 210 205 201 195 193 203 208 211 225 217 209 214 216 207 206 205 204 201 204 205 209 209 213 215 219
319 278 256 250 248 238 232 226 223 219 222 221 215 208 204 208 209 206 204 205 203 201 206 198 201 202 209 211 225 221 209 213 219 216 208 209 208 208 206 208 213 214 215 218 223
320 288 264 265 248 235 232 228 224 222 218 223 217 214 205 206 208 208 208 207 206 205 206 205 204 205 207 213 218 221 222 208 212 220 213 212 211 212 214 212 216 219 218 220 224
318 296 281 283 252 231 231 227 225 222 219 220 218 216 210 206 206 208 206 209 207 208 209 207 205 208 210 211 214 216 216 222 213 215 217 216 212 212 216 217 219 221 223 222 226
304 302 300 285 273 229 224 225 225 223 220 220 218 217 215 205 205 204 208 209 209 210 210 209 211 212 212 210 212 205 216 223 221 220 216 220 215 214 217 219 220 225 227 228 230
302 300 298 286 276 243 225 221 222 223 221 220 218 218 215 210 205 204 204 206 211 211 214 210 213 215 214 210 209 214 206 228 224 218 217 220 217 222 219 219 222 225 229 230 235
299 291 286 280 265 258 233 219 220 222 221 220 218 218 216 215 208 206 209 212 213 213 213 213 214 216 215 216 217 216 207 218 221 215 219 223 223 222 223 222 222 226 229 232 235
293 286 287 284 264 264 250 221 217 219 220 220 219 218 215 216 214 210 208 210 210 212 212 213 214 216 219 224 222 215 222 214 212 216 227 227 224 227 224 224 224 227 230 234 238
289 290 289 275 261 258 263 235 217 216 219 218 217 217 215 215 216 214 210 209 212 214 214 215 215 216 217 223 219 213 218 226 225 224 229 224 220 226 232 231 231 231 232 234 239
297 288 282 276 261 259 258 254 221 216 216 217 218 215 214 214 216 215 213 210 212 213 216 217 219 222 221 224 227 222 222 225 228 231 235 233 230 231 227 226 230 233 236 236 239
300 290 290 282 273 260 255 248 235 213 214 215 216 213 213 211 214 214 214 212 210 212 215 217 219 223 225 225 227 228 229 231 235 237 240 238 239 225 233 233 241 240 234 235 241
325 336 328 309 292 270 253 239 234 214 212 216 216 214 212 208 211 212 213 213 212 211 213 216 218 221 223 225 226 230 231 236 237 242 241 242 243 236 234 241 246 247 251 241 245
19 34 35 30 7 338 289 245 238 222 210 212 215 213 210 208 208 211 211 210 212 211 212 214 217 220 220 225 230 232 231 233 235 239 239 241 248 246 243 245 247 253 255 257 257
36 49 60 26 26 8 306 225 255 221 207 209 213 214 210 210 207 209 210 211 211 212 213 213 216 218 221 224 229 235 233 232 236 237 240 245 245 246 255 256 253 253 252 254 258
38 49 38 44 28 32 359 314 149 183 203 202 207 213 213 213 209 209 211 211 212 215 215 213 215 218 220 226 227 230 233 237 238 242 241 241 241 245 252 259 261 255 252 255 256
35 26 60 43 40 4 7 66 144 118 163 200 207 213 213 213 213 212 212 212 212 216 217 217 218 218 220 221 224 227 231 236 241 240 244 246 245 249 256 257 256 254 252 255 258
30 23 99 99 9 333 20 71 57 83 135 172 200 215 216 214 213 214 215 213 215 216 217 221 222 220 221 222 224 226 228 233 236 237 242 244 247 245 248 250 249 255 256 257 258
21 9 359 321 237 320 50 240 56 62 149 176 174 179 210 217 216 213 217 216 214 215 219 221 222 221 223 224 224 227 228 231 236 239 241 243 245 245 245 248 252 257 257 257 260
41 6 6 48 120 175 115 94 211 75 115 145 169 169 193 215 216 218 216 217 218 216 217 219 224 224 226 225 224 229 230 231 234 234 238 240 241 245 251 254 257 260 262 260 262
43 25 358 116 140 179 177 157 182 197 37 160 174 173 155 182 216 215 216 216 217 218 218 221 223 228 231 235 233 231 229 228 235 238 241 243 245 246 250 254 259 259 261 265 265
55 30 26 71 155 217 195 179 164 168 200 166 150 177 166 153 179 216 216 215 213 215 217 217 222 226 231 233 235 234 230 224 232 233 233 240 245 249 251 252 254 257 257 257 254
47 26 31 71 98 221 220 195 183 195 195 171 168 164 204 201 214 205 211 214 213 214 211 217 223 225 226 229 233 231 229 217 232 234 235 238 242 248 254 252 252 255 256 256 258
220 171 4 42 26 336 257 210 200 193 167 161 163 172 183 187 203 207 207 210 211 206 204 211 217 222 226 230 232 235 234 227 231 231 233 233 233 242 243 246 249 253 256 259 261
Height
5716 5713 5710 5707 5707 5709 5711 5712 5715 5722 5729 5738 5748 5754 5761 5768 5774 5778 5785 5789 5793 5797 5802 5805 5810 5814 5821 5824 5830 5838 5842 5845 5848 5851 5854 5857 5860 5864 5867 5869 5871 5873 5874 5875 5876
5703 5702 5699 5697 5695 5696 5700 5702 5705 5710 5717 5725 5735 5746 5752 5759 5767 5771 5778 5783 5787 5792 5797 5801 5806 5809 5814 5820 5825 5833 5838 5841 5845 5849 5854 5854 5858 5862 5865 5868 5871 5872 5873 5875 5875
5688 5687 5684 5680 5680 5683 5687 5691 5694 5700 5706 5713 5722 5734 5742 5749 5758 5764 5770 5778 5781 5787 5792 5797 5801 5803 5808 5814 5822 5828 5834 5837 5841 5846 5851 5853 5855 5858 5861 5866 5868 5870 5871 5873 5874
5673 5667 5663 5662 5665 5669 5673 5679 5684 5689 5695 5702 5710 5720 5730 5739 5747 5756 5763 5770 5775 5782 5788 5793 5795 5800 5806 5811 5818 5824 5830 5834 5838 5842 5846 5850 5853 5855 5858 5863 5866 5868 5870 5871 5873
5653 5645 5643 5644 5650 5655 5660 5665 5671 5678 5684 5691 5699 5707 5718 5728 5736 5747 5755 5761 5769 5777 5782 5787 5792 5797 5802 5808 5810 5817 5824 5829 5834 5837 5842 5846 5849 5852 5855 5859 5863 5865 5868 5869 5871
5635 5628 5624 5627 5634 5641 5647 5653 5659 5665 5673 5680 5688 5696 5706 5718 5726 5736 5746 5753 5761 5769 5775 5781 5788 5790 5797 5802 5805 5812 5815 5821 5827 5832 5837 5841 5845 5847 5852 5854 5858 5861 5864 5866 5867
5620 5615 5612 5611 5618 5627 5634 5641 5648 5653 5661 5669 5677 5686 5696 5707 5716 5726 5735 5744 5753 5761 5768 5775 5781 5787 5794 5797 5802 5805 5808 5812 5819 5826 5830 5836 5842 5844 5848 5851 5854 5857 5859 5862 5863
5610 5607 5605 5604 5604 5611 5621 5629 5636 5643 5650 5657 5667 5677 5686 5695 5705 5716 5725 5734 5743 5751 5760 5767 5774 5780 5785 5791 5795 5799 5801 5805 5813 5819 5824 5830 5837 5839 5842 5847 5849 5852 5855 5857 5858
5604 5601 5600 5599 5598 5600 5607 5617 5626 5633 5641 5648 5657 5666 5676 5685 5695 5706 5716 5725 5734 5743 5752 5759 5766 5773 5778 5784 5788 5791 5796 5800 5807 5812 5816 5822 5832 5835 5837 5842 5844 5848 5849 5851 5854
5599 5597 5597 5595 5594 5593 5597 5606 5615 5624 5632 5640 5648 5658 5669 5677 5685 5696 5706 5716 5725 5734 5744 5751 5759 5765 5771 5777 5781 5787 5791 5795 5796 5804 5810 5815 5824 5828 5832 5836 5838 5842 5843 5845 5847
5596 5594 5593 5591 5590 5589 5591 5597 5609 5618 5625 5633 5641 5648 5658 5668 5676 5687 5698 5707 5717 5725 5735 5743 5751 5757 5765 5771 5774 5781 5786 5790 5793 5798 5803 5808 5816 5820 5825 5829 5831 5835 5837 5839 5840
5593 5591 5590 5588 5587 5587 5588 5591 5599 5607 5617 5625 5634 5641 5651 5659 5669 5677 5689 5699 5708 5717 5725 5734 5743 5750 5758 5763 5768 5774 5778 5783 5788 5793 5797 5798 5804 5809 5815 5820 5824 5828 5831 5833 5834
5591 5589 5587 5586 5585 5585 5586 5587 5592 5600 5609 5618 5627 5635 5644 5653 5662 5669 5681 5690 5700 5709 5718 5726 5735 5743 5750 5754 5760 5766 5771 5776 5781 5786 5789 5793 5798 5803 5808 5814 5819 5822 5824 5826 5828
5589 5586 5585 5585 5585 5584 5585 5586 5587 5592 5603 5613 5621 5630 5638 5647 5657 5665 5672 5683 5692 5702 5710 5718 5726 5733 5740 5747 5752 5758 5765 5769 5774 5778 5782 5787 5792 5797 5802 5806 5810 5813 5816 5819 5821
5586 5584 5584 5583 5583 5583 5584 5584 5585 5589 5598 5606 5615 5623 5632 5643 5652 5659 5667 5675 5684 5694 5705 5713 5719 5727 5733 5742 5745 5751 5757 5761 5765 5770 5774 5781 5784 5791 5794 5798 5803 5805 5808 5810 5814
5586 5584 5584 5583 5581 5581 5581 5582 5582 5588 5593 5601 5608 5618 5627 5637 5645 5653 5661 5669 5677 5686 5695 5702 5711 5718 5725 5733 5738 5745 5750 5755 5759 5762 5766 5773 5778 5783 5789 5794 5795 5799 5800 5801 5805
5587 5585 5584 5583 5582 5582 5581 5581 5583 5585 5590 5597 5604 5612 5621 5630 5639 5648 5657 5664 5670 5679 5688 5697 5705 5712 5718 5725 5731 5737 5743 5747 5753 5755 5760 5766 5769 5775 5783 5786 5789 5790 5791 5792 5795
5589 5588 5587 5585 5583 5583 5581 5581 5582 5583 5587 5593 5600 5607 5617 5625 5634 5642 5651 5659 5666 5674 5683 5690 5699 5706 5713 5719 5725 5729 5735 5742 5744 5750 5755 5757 5763 5768 5773 5778 5781 5782 5784 5785 5787
5592 5589 5588 5586 5585 5585 5583 5581 5581 5583 5586 5591 5595 5602 5610 5619 5629 5637 5646 5655 5663 5669 5677 5684 5693 5699 5705 5710 5716 5722 5726 5733 5738 5742 5747 5751 5757 5761 5765 5767 5771 5773 5775 5776 5778
5592 5591 5589 5587 5586 5586 5585 5583 5583 5584 5586 5589 5594 5600 5606 5613 5622 5630 5640 5650 5658 5665 5672 5679 5687 5692 5697 5702 5708 5715 5721 5725 5730 5735 5739 5744 5749 5755 5760 5761 5762 5764 5765 5766 5767
5592 5591 5590 5589 5588 5588 5587 5585 5585 5586 5588 5591 5593 5597 5602 5608 5616 5626 5634 5645 5653 5660 5668 5674 5680 5687 5691 5696 5702 5707 5712 5718 5723 5727 5732 5737 5741 5746 5750 5753 5755 5757 5757 5758 5759
5592 5591 5590 5588 5588 5589 5588 5588 5587 5588 5589 5590 5592 5596 5600 5605 5612 5620 5629 5638 5647 5655 5662 5669 5674 5679 5686 5691 5696 5700 5706 5712 5716 5722 5726 5729 5735 5738 5742 5744 5746 5747 5750 5751 5752
5592 5591 5590 5588 5588 5589 5589 5589 5589 5590 5590 5592 5594 5596 5597 5603 5610 5616 5623 5632 5640 5649 5656 5662 5667 5673 5679 5685 5690 5696 5701 5704 5709 5713 5718 5722 5728 5730 5732 5735 5736 5737 5739 5740 5742
5593 5592 5591 5589 5588 5589 5590 5590 5590 5590 5591 5592 5594 5596 5598 5600 5604 5610 5618 5626 5634 5641 5649 5654 5662 5667 5673 5679 5685 5691 5696 5699 5702 5706 5711 5716 5719 5721 5723 5724 5726 5728 5730 5731 5733
5593 5593 5591 5590 5588 5589 5590 5590 5590 5590 5591 5592 5593 5595 5598 5600 5601 5606 5612 5620 5629 5635 5642 5649 5655 5661 5666 5672 5677 5682 5688 5692 5695 5700 5703 5708 5711 5713 5714 5715 5717 5720 5722 5723 5725
5593 5593 5592 5590 5589 5590 5590 5590 5590 5590 5591 5592 5593 5595 5597 5599 5600 5602 5607 5614 5623 5630 5637 5643 5650 5655 5660 5665 5670 5675 5681 5685 5689 5693 5697 5701 5703 5705 5707 5709 5710 5711 5713 5715 5716
5592 5593 5592 5591 5590 5591 5591 5591 5590 5591 5591 5592 5593 5594 5595 5597 5599 5600 5603 5608 5618 5627 5633 5639 5645 5650 5655 5659 5662 5670 5676 5679 5683 5687 5690 5694 5696 5697 5700 5702 5703 5704 5705 5706 5708